カタログに戻る

FENGYUN 1C DEB

運用中SSO
NORAD 31196·DEBRIS·🇨🇳 China

打ち上げ May 10, 1999 から Taiyuan Satellite Launch Center

Loading…

次のパス (今後24時間)

TLE

最新Source: Space-Track

元期: Sep 12, 2026, 18:26 UTC

1 31196U 99025BKA 26255.76867259  .00000607  00000-0  26692-3 0  9996
2 31196  98.5202 266.4586 0058927 130.6685 229.9638 14.26039805674009

AllMySatでFENGYUN 1C DEBをリアルタイム追跡

Download on the App Store